"Pseudo-MPEC" for P2165gR

Created 2020 Sep 19 21:07:42 UT using Find_Orb

Click here for an explanation of pseudo-MPECs

 
 Astrometry: 
     P2165gR  C2020 09 14hkg)]=\fG-le`Vxm[^qvhLFAstrometryo.l/plh;4KRQ-?xoec/F52
     P2165gR  C2020 09 14A;WSs-BSk.dJWC?knqBVjtK07ZQSredacted;]b,0clicko(0#ssF52
     P2165gR  C2020 09 14#M]WQnJ_oB[KfUPPm0(GhereD`X:iforB=;tjyQumexplanationF52

Station data:
(F52) Pan-STARRS 2, Haleakala  (N20.707384 W156.255910)  US/Hawaii. 1.8-m
   Ritchey-Chrétien + CCD.

Orbital elements:  P2165gR
   Perihelion 2020 Nov 13.421766 +/- 56.9 TT = 10:07:20 (JD 2459166.921766)
Epoch 2020 Sep 14.0 TT = JDT 2459106.5   Earth MOID: 0.0007   Ve: 0.0354
M 316.02357573 +/- 48               Ma: 0.0446                AutoNEOCP
n   0.72782421 +/- 0.251            Peri.   91.59332 +/- 60
a   1.22401023 +/- 0.282            Node   352.17104 +/- 0.16
e   0.4309625 +/- 0.228             Incl.    5.83799 +/- 8
P   1.35/494.62d           H 29.6   G  0.15   U 11.8  SR
q 0.69650770 +/- 0.155    Q 1.75151277 +/- 1.86
From 3 observations 2020 Sept. 14 (31.2 min); mean residual 1".01
Residuals in arcseconds: 
200914 F52  .63-  .81+    200914 F52  1.2+  1.6-    200914 F52  .61-  .78+    

Ephemerides (geocentric):
Date (UTC) HH   RA              Dec         delta   r     elong  mag " sig PA
---- -- -- --  -------------   -----------  ------ ------ -----  --- ---- ---
2020 09 19 21  11 56 19.654   +13 38 08.19  .03432 .97089  12.6 36??  64d   1
2020 09 19 22  11 56 18.693   +13 37 30.11  .03463 .97058  12.6 36??  64d   1
2020 09 19 23  11 56 17.748   +13 36 52.63  .03494 .97026  12.6 36??  64d   1
2020 09 20 00  11 56 16.818   +13 36 15.74  .03524 .96995  12.6 36??  64d   1
2020 09 20 01  11 56 15.903   +13 35 39.43  .03555 .96964  12.6 36??  64d   1
2020 09 20 02  11 56 15.003   +13 35 03.68  .03586 .96933  12.6 36??  64d   1
2020 09 20 03  11 56 14.116   +13 34 28.48  .03617 .96902  12.6 36??  64d   1
2020 09 20 04  11 56 13.244   +13 33 53.80  .03648 .96871  12.6 36??  64d   1
2020 09 20 05  11 56 12.384   +13 33 19.65  .03679 .96839  12.6 36??  64d   1
2020 09 20 06  11 56 11.538   +13 32 45.99  .03709 .96808  12.6 36??  64d   1
2020 09 20 07  11 56 10.705   +13 32 12.83  .03740 .96777  12.6 36??  64d   1
2020 09 20 08  11 56 09.884   +13 31 40.14  .03771 .96746  12.6 36??  64d   1
2020 09 20 09  11 56 09.075   +13 31 07.92  .03802 .96715  12.6 36??  64d   1
2020 09 20 10  11 56 08.278   +13 30 36.15  .03833 .96684  12.6 36??  64d   1
2020 09 20 11  11 56 07.493   +13 30 04.83  .03864 .96652  12.6 36??  64d   1
2020 09 20 12  11 56 06.719   +13 29 33.93  .03894 .96621  12.6 36??  64d   1
2020 09 20 13  11 56 05.956   +13 29 03.46  .03925 .96590  12.6 36??  64d   1
2020 09 20 14  11 56 05.203   +13 28 33.39  .03956 .96559  12.6 36??  64d   1
2020 09 20 15  11 56 04.462   +13 28 03.73  .03987 .96528  12.6 36??  64d   1
2020 09 20 16  11 56 03.730   +13 27 34.46  .04018 .96497  12.6 36??  64d   1
2020 09 20 17  11 56 03.009   +13 27 05.57  .04049 .96465  12.7 36??  64d   0
2020 09 20 18  11 56 02.297   +13 26 37.04  .04080 .96434  12.7 36??  64d   0
2020 09 20 19  11 56 01.595   +13 26 08.89  .04110 .96403  12.7 36??  64d   0
2020 09 20 20  11 56 00.903   +13 25 41.08  .04141 .96372  12.7 36??  64d   0
2020 09 20 21  11 56 00.220   +13 25 13.62  .04172 .96341  12.7 36??  64d   0
2020 09 20 22  11 55 59.546   +13 24 46.50  .04203 .96310  12.7 36??  64d   0
2020 09 20 23  11 55 58.880   +13 24 19.71  .04234 .96279  12.7 36??  64d   0
2020 09 21 00  11 55 58.224   +13 23 53.24  .04265 .96247  12.7 36??  64d   0
2020 09 21 01  11 55 57.575   +13 23 27.08  .04296 .96216  12.7 36??  63d   0
2020 09 21 02  11 55 56.935   +13 23 01.23  .04327 .96185  12.7 36??  63d   0
2020 09 21 03  11 55 56.304   +13 22 35.68  .04358 .96154  12.7 36??  63d   0
2020 09 21 04  11 55 55.680   +13 22 10.42  .04388 .96123  12.7 36??  63d   0
2020 09 21 05  11 55 55.064   +13 21 45.45  .04419 .96092  12.7 37??  63d   0
2020 09 21 06  11 55 54.456   +13 21 20.76  .04450 .96061  12.7 37??  63d   0
2020 09 21 07  11 55 53.855   +13 20 56.34  .04481 .96030  12.7 37??  63d   0
2020 09 21 08  11 55 53.261   +13 20 32.19  .04512 .95998  12.8 37??  63d   0
2020 09 21 09  11 55 52.675   +13 20 08.30  .04543 .95967  12.8 37??  63d   0
2020 09 21 10  11 55 52.096   +13 19 44.67  .04574 .95936  12.8 37??  63d   0
2020 09 21 11  11 55 51.524   +13 19 21.29  .04605 .95905  12.8 37??  63d   0
2020 09 21 12  11 55 50.958   +13 18 58.15  .04636 .95874  12.8 37??  63d   0
2020 09 21 13  11 55 50.400   +13 18 35.24  .04667 .95843  12.8 37??  63d   0
2020 09 21 14  11 55 49.848   +13 18 12.58  .04698 .95812  12.8 37??  63d   0
2020 09 21 15  11 55 49.302   +13 17 50.14  .04729 .95781  12.8 37??  63d   0
2020 09 21 16  11 55 48.763   +13 17 27.92  .04760 .95750  12.8 37??  63d   0
2020 09 21 17  11 55 48.230   +13 17 05.92  .04791 .95718  12.8 37??  63d   0
2020 09 21 18  11 55 47.703   +13 16 44.14  .04822 .95687  12.9 37??  63d   0
2020 09 21 19  11 55 47.183   +13 16 22.57  .04853 .95656  12.9 37??  63d   0
2020 09 21 20  11 55 46.668   +13 16 01.20  .04884 .95625  12.9 37??  63d   0